Aeroporto :
LOGIN :

Iscrizione | Disclaimer

   EN    FR    IT 

 










Sommario :    VFR   VFR Marginale   IFR   IFR Intensivo   IFR Molto Intensivo
Visibilità : 
Base nubi : 
>= 8 km
>= 3000ft
5 / 8 km
1000 / 3000 ft
1500m / 5 km
500 / 1000 ft
800 / 1500m
200 / 500 ft
< 800m
< 200 ft
Simboli :   Temporali  Nebbia  Neve Forte  Precipitazioni Forti  Vento > 20 kt
SIGMETs :   Varie  Temporali  Ghiacco  Turbolenza  Onda orograficha  Ceneri Vulcaniche






- Altitudine del aeroporto : 325 ft
- Codice IATA : POX


LFPT - Pontoise

ULTIMO METAR :
  • 041700Z AUTO 16008KT 9999 BKN033/// OVC039/// ///CB 04/02 Q0986

METARs OBSOLETI :
  • 041630Z AUTO 18011KT 140V200 9999 FEW017/// BKN035/// BKN072/// ///TCU 05/01 Q0985
  • 041600Z AUTO 18009KT 9999 -RA FEW033/// SCT039/// OVC070/// ///CB 06/01 Q0985
  • 041530Z AUTO 19010KT CAVOK 06/00 Q0985
  • 041500Z AUTO 20008KT CAVOK 06/00 Q0985
  • 041430Z AUTO 23011KT 9999 FEW040 BKN056 BKN072 06/00 Q0984

TAF N/A
ATIS : +33 1 30 30 52 08



MetMap, La meteo Aeronautica in un colpo d'occhio ! - Copyright ORBIFLY Dicembre 2007 - Disclaimer

ORBIFLY MET'MAP TEAM :

Programmazione e sviluppo : Alexandra Zaïnal
Concezione : Baudouin d'Aumeries
Aiuto per la programmazione : Marc-Olivier Méhu
Supporto tecnico e logistico : Manuel Goepfert
Aiuto per la traduzione : Arnaldo La Scala

Contatto : metmap@orbifly.com




FONTI E CREDITI :

   NOAA